Printer-friendly version

IAU Minor Planet Center

Minor Planet Center

MPEC 2006-A19 : 2006 AW

The following Minor Planet Electronic Circular may be linked-to from your own Web pages, but must not otherwise be redistributed electronically.


Read MPEC 2006-A18 Read MPEC 2006-A20


M.P.E.C. 2006-A19                                Issued 2006 Jan. 5, 20:41 UT

     The Minor Planet Electronic Circulars contain information on unusual
         minor planets and routine data on comets.  They are published
   on behalf of Commission 20 of the International Astronomical Union by the
          Minor Planet Center, Smithsonian Astrophysical Observatory,
                          Cambridge, MA 02138, U.S.A.

                  Supported in part by the Brinson Foundation
                  Supported in part by the TABASGO Foundation
             Prepared using the Tamkin Foundation Computer Network

                              MPC@CFA.HARVARD.EDU
          URL http://cfa-www.harvard.edu/iau/mpc.html  ISSN 1523-6714

                                    2006 AW

Observations:
     K06A00W* C2006 01 05.10152 02 57 23.83 +23 27 36.7          16.7 V EA019703
     K06A00W  C2006 01 05.10789 02 57 28.00 +23 27 28.1          16.8 V EA019703
     K06A00W  C2006 01 05.11425 02 57 32.11 +23 27 19.1          16.8 V EA019703
     K06A00W  C2006 01 05.12065 02 57 36.32 +23 27 10.6          16.7 V EA019703
     K06A00W  C2006 01 05.12700 02 57 40.46 +23 27 01.4          16.6 V EA019703
     K06A00W  C2006 01 05.12741 02 57 40.71 +23 27 00.6          16.7 V EA019703
     K06A00W  C2006 01 05.12781 02 57 41.00 +23 26 59.9          16.7 V EA019703
     K06A00W  C2006 01 05.12822 02 57 41.25 +23 26 59.5          16.7 V EA019703
     K06A00W  C2006 01 05.15696 02 58 00.01 +23 26 19.5          16.7 V EA019703
     K06A00W  C2006 01 05.15736 02 58 00.22 +23 26 18.8          16.8 V EA019703
     K06A00W  C2006 01 05.15777 02 58 00.48 +23 26 17.9          16.7 V EA019703
     K06A00W  C2006 01 05.15817 02 58 00.73 +23 26 17.5          16.7 V EA019703
     K06A00W  C2006 01 05.22977 02 58 47.31 +23 24 34.7          17.1 V EA019703
     K06A00W  C2006 01 05.23017 02 58 47.60 +23 24 33.6          17.1 V EA019703
     K06A00W  C2006 01 05.23058 02 58 47.85 +23 24 33.2          17.0 V EA019703
     K06A00W  C2006 01 05.23098 02 58 48.10 +23 24 32.6          17.1 V EA019703
     K06A00W  C2006 01 05.27900 02 59 19.42 +23 23 22.2          17.1 V EA019703
     K06A00W  C2006 01 05.27942 02 59 19.64 +23 23 21.5          17.3 V EA019703
     K06A00W  C2006 01 05.27983 02 59 19.96 +23 23 20.6          17.3 V EA019703
     K06A00W  C2006 01 05.28024 02 59 20.18 +23 23 19.7          17.2 V EA019703
     K06A00W  C2006 01 05.30648 02 59 37.39 +23 22 41.4          18.0 R EA019854
     K06A00W  C2006 01 05.30711 02 59 37.83 +23 22 40.3          17.7 R EA019854
     K06A00W  C2006 01 05.30771 02 59 38.19 +23 22 39.0          17.7 R EA019854
     K06A00W  C2006 01 05.31814 02 59 45.01 +23 22 23.6          17.6 R EA019854
     K06A00W  C2006 01 05.31875 02 59 45.42 +23 22 22.3          17.6 R EA019854
     K06A00W  C2006 01 05.31936 02 59 45.84 +23 22 22.0          17.8 R EA019854
     K06A00W  C2006 01 05.73688 03 04 22.13 +23 12 19.2          17.6 V EA019151
     K06A00W  C2006 01 05.73749 03 04 22.53 +23 12 18.3          17.7 V EA019151
     K06A00W  C2006 01 05.73811 03 04 22.94 +23 12 17.2          17.5 V EA019151
     K06A00W  C2006 01 05.73954 03 04 23.87 +23 12 15.3          17.6 V EA019151
     K06A00W  C2006 01 05.74016 03 04 24.25 +23 12 14.6          17.7 V EA019151
     K06A00W  C2006 01 05.74077 03 04 24.63 +23 12 13.7          17.6 V EA019151
     K06A00W  C2006 01 05.80109 03 05 02.89 +23 10 47.5          16.7 V EA019A13
     K06A00W  C2006 01 05.80294 03 05 04.07 +23 10 44.7          16.6 V EA019A13
     K06A00W  C2006 01 05.80431 03 05 04.92 +23 10 42.2          16.5 V EA019A13
     K06A00W  C2006 01 05.81096 03 05 09.11 +23 10 33.0          16.4 V EA019A13

Observer details:
151 Eschenberg Observatory, Winterthur.  Observer M. Griesser.  0.40-m f/5.9
    Hypergraph + CCD.
703 Catalina Sky Survey.  Observer R. Hill.  Measurers E. C. Beshore,
    E. J. Christensen, G. J. Garradd, A. D. Grauer, R. E. Hill, R. A. Kowalski,
    S. M. Larson, R. H. McNaught.  0.68-m Schmidt + CCD.
854 Sabino Canyon Observatory, Tucson.  Observer J. E. McGaha.  0.36-m f/10.0
    Schmidt-Cassegrain + CCD.
A13 Observatoire Naef, Marly.  Observer P. Kocher.  0.5-m f/3.3 Hypergraph
    + CCD.

Orbital elements:
2006 AW                                                  Earth MOID = 0.0739 AU
Epoch 2006 Mar. 6.0 TT = JDT 2453800.5                  MPC
M  25.97194              (2000.0)            P               Q
n   0.24605842     Peri.  116.03125     +0.77293620     -0.60785741
a   2.5221867      Node   281.94552     +0.49514464     +0.75712025
e   0.6389712      Incl.   10.71373     +0.39673848     +0.23932885
P   4.01           H   18.6           G   0.15           U   8
Residuals in seconds of arc
060105 703  0.1+  0.0     060105 703  0.4-  0.2+    060105 854  0.5+  0.5-
060105 703  0.2+  0.2+    060105 703  0.0   0.3-    060105 854  0.8+  0.1+
060105 703  0.3-  0.0     060105 703  0.2-  0.1-    060105 151  0.4-  0.3+
060105 703  0.1+  0.4+    060105 703  0.4-  0.1-    060105 151  0.2-  0.2+
060105 703  0.1+  0.1+    060105 703  0.1+  0.2+    060105 151  0.0   0.0
060105 703  0.1-  0.2-    060105 703  0.7-  0.1+    060105 151  0.3+  0.1+
060105 703  0.3+  0.3-    060105 703  0.1+  0.2-    060105 151  0.1+  0.3+
060105 703  0.1+  0.1-    060105 703  0.6-  0.4-    060105 151  0.0   0.3+
060105 703  0.6+  0.3+    060105 854  0.4+  0.2+    060105 A13  0.0   0.1+
060105 703  0.1-  0.2+    060105 854  0.8+  0.1+    060105 A13  0.2+  0.0
060105 703  0.2-  0.1-    060105 854  0.4+  0.3-    060105 A13  0.0   0.5-
060105 703  0.3-  0.0     060105 854  0.4+  0.1-    060105 A13  0.1-  0.1-

Ephemeris:
2006 AW                  a,e,i = 2.52, 0.64, 11                  q = 0.9106
Date    TT    R. A. (2000) Decl.     Delta      r     Elong.  Phase     V
2006 01 05    02 56.24   +23 30.1    0.206    1.111   123.8    47.3    17.2
2006 01 15    04 21.97   +19 23.4    0.281    1.191   132.3    37.7    17.7
2006 01 25    05 11.75   +16 22.0    0.381    1.276   133.2    34.2    18.5
2006 02 04    05 44.62   +14 33.9    0.498    1.364   130.7    33.2    19.2
2006 02 14    06 09.58   +13 30.7    0.629    1.453   126.7    33.0    19.8
2006 02 24    06 30.57   +12 52.0    0.772    1.543   121.8    33.0    20.4
2006 03 06    06 49.53   +12 25.3    0.926    1.633   116.6    32.9    20.9
2006 03 16    07 07.40   +12 02.8    1.090    1.721   111.2    32.6    21.3
2006 03 26    07 24.61   +11 39.9    1.263    1.809   105.7    32.1    21.8

Timothy B. Spahr             (C) Copyright 2006 MPC           M.P.E.C. 2006-A19

Read MPEC 2006-A18 Read MPEC 2006-A20


Our Web policy. Index to the CBAT/MPC/ICQ pages.


Valid HTML 4.01!